SCP
-0 -0 -0 -1 -1 -0 -0 -0 0 0 0 0 0 0 0 0 0 0 0 0 0 0 -0 0 0 0 0 0 0 0 0 0 0 0 0 0 0 0 0 0 0 0 0
-0 -0 0 -0 -1 -0 0 -0 0 0 0 0 0 0 0 0 0 0 0 -0 -0 0 0 0 0 0 0 0 0 0 0 0 0 0 0 0 0 0 0 0 0 0 0
0 0 0 0 -0 -0 0 0 0 0 0 0 0 0 0 0 0 0 -0 0 0 0 0 0 0 0 0 0 0 0 0 0 0 0 0 0 0 0 0 0 0 0 0
0 0 0 0 -0 -0 -0 0 0 0 0 0 0 0 0 0 0 -0 -0 0 0 0 0 0 0 0 0 0 0 0 0 0 -0 0 0 0 0 0 0 0 0 0 0
0 0 0 0 0 -0 -0 -0 0 0 0 0 0 0 0 0 0 -0 -0 0 0 0 0 0 0 0 0 0 0 0 0 0 -0 -0 0 0 0 0 1 0 0 0 0
0 0 0 0 0 0 0 -0 -0 -0 -0 0 0 0 0 0 0 -0 -0 -0 0 0 0 0 0 0 0 0 0 0 0 0 -0 0 0 0 0 0 0 0 0 1 0
0 0 0 0 0 0 0 -0 -0 -0 -0 -0 0 0 0 -0 -0 -0 -0 -0 0 0 0 0 0 0 0 0 0 0 0 0 0 0 0 0 0 1 1 0 0 0 0
0 0 1 0 0 0 0 0 -0 -0 -0 -0 -0 -0 0 -0 -0 -0 -0 -0 -0 0 0 0 0 0 0 0 0 0 0 0 0 0 0 0 0 1 1 0 0 0 0
0 1 1 1 1 0 0 0 0 -0 -0 -0 -0 -0 -0 -0 0 -0 -0 -0 0 0 0 0 0 0 0 0 0 0 0 0 0 0 0 0 1 1 1 1 0 0 0
0 1 1 0 0 0 0 0 0 0 -0 -0 -0 -0 -0 -0 0 0 0 0 0 0 0 0 0 0 0 0 0 0 0 0 0 0 0 0 1 0 0 1 1 0 0
0 2 1 0 0 0 0 0 0 0 -0 -0 -0 -0 -0 -0 -0 0 0 0 0 0 0 0 0 0 0 0 0 0 0 0 0 0 0 1 1 0 0 1 1 0 0
0 0 1 0 0 0 0 0 0 0 0 -0 -0 -0 -0 -0 0 -0 0 0 0 0 0 0 0 0 0 0 0 0 0 0 0 0 0 1 1 1 0 1 1 0 0
0 0 1 0 1 1 0 1 0 0 0 0 -0 0 0 -0 -0 0 0 0 0 0 0 0 0 0 0 0 0 0 0 0 0 0 0 1 1 1 0 1 1 1 0
0 1 1 1 1 1 1 1 0 0 0 0 0 0 0 0 0 0 0 0 0 0 0 0 0 0 0 0 0 0 0 0 0 0 1 1 1 1 0 1 1 1 1
0 1 1 2 4 2 5 6 1 0 0 0 0 0 0 0 0 0 1 0 0 0 0 0 0 0 0 0 0 0 0 0 0 0 0 1 1 1 1 1 1 1 1
0 1 1 4 7 5 7 11 11 5 0 0 0 1 1 1 1 1 1 1 0 0 0 0 0 0 0 0 0 0 0 0 1 1 0 1 1 1 1 1 1 1 1
0 0 1 2 4 3 2 5 8 10 5 3 1 2 1 1 2 1 1 1 1 0 0 0 0 1 0 1 0 1 1 1 1 1 1 0 0 0 1 1 1 1 1
0 0 0 0 2 3 3 5 6 5 8 5 5 5 2 2 2 4 2 2 1 1 0 0 0 0 0 0 0 1 1 1 1 3 2 1 1 1 0 1 0 0 1
0 0 0 0 1 3 3 2 3 3 3 3 2 3 3 3 2 3 2 2 2 1 0 0 0 0 0 1 1 1 1 3 3 3 3 2 1 1 0 0 0 0 0
0 0 0 1 1 2 4 3 2 2 2 1 1 1 2 3 3 3 3 2 2 1 0 0 0 1 1 1 1 1 2 3 3 3 3 2 1 1 0 1 1 0 1
0 0 0 1 1 2 5 5 4 3 2 1 1 0 2 1 2 2 2 2 1 1 0 0 1 1 1 1 1 1 3 4 3 3 4 3 2 1 1 1 1 1 1
0 0 0 0 1 1 2 4 5 5 2 1 1 1 0 1 1 1 1 1 1 1 1 0 1 1 2 1 2 1 3 3 4 3 3 2 2 1 1 2 1 1 1
0 0 0 0 0 1 1 1 0 0 3 2 1 1 1 1 2 1 1 1 1 2 0 1 1 3 3 1 0 2 2 2 4 5 3 3 2 2 1 1 1 1 1
0 0 0 0 0 0 2 1 2 1 0 0 0 0 2 2 2 1 2 2 1 1 1 0 2 3 2 1 -0 2 5 5 5 4 5 3 2 2 1 1 1 1 1
0 0 0 0 0 0 1 1 1 2 1 0 1 3 4 4 2 3 2 4 2 0 0 0 3 3 2 2 0 0 7 4 4 4 2 3 3 2 1 1 1 1 1
0 0 0 0 0 0 1 1 2 1 1 1 0 1 1 2 4 6 5 3 3 1 3 1 1 2 1 0 1 0 7 6 4 4 2 2 2 2 1 1 1 1 1
Wind_Speed_500mb
14 36 38 42 46 49 47 41 35 34 32 31 31 32 33 35 34 30 26 24 21 20 20 19 19 18 17 16 15 15 18 18 19 21 24 22 17 12 10 11 15 5 7
21 35 43 42 47 51 48 45 40 38 35 33 33 33 33 33 32 29 26 23 22 20 18 17 18 18 16 17 16 17 18 19 21 19 20 24 28 13 8 7 4 5 5
17 34 45 44 47 53 51 48 45 41 38 35 34 33 32 31 30 27 25 22 21 20 17 15 15 15 16 17 16 16 16 18 23 30 23 21 26 22 14 4 0 1 2
18 30 44 47 46 55 55 51 46 42 39 36 35 33 31 29 27 24 21 20 19 18 16 14 12 12 13 13 12 12 14 15 22 19 20 18 25 20 17 9 0 2 1
21 24 45 50 49 55 55 52 49 44 41 37 35 33 30 26 25 22 19 17 14 13 13 10 9 8 8 9 10 9 10 13 18 21 18 3 15 21 19 12 6 2 5
20 23 48 52 53 55 56 52 48 45 43 40 37 34 30 26 23 20 16 14 12 9 8 7 5 3 4 5 6 7 8 9 11 10 6 14 19 20 23 13 9 9 8
34 28 51 56 59 58 61 56 52 47 43 39 38 34 31 27 24 20 16 12 9 7 4 2 0 2 3 6 6 6 6 6 4 13 7 25 20 23 26 16 12 10 9
39 38 40 58 61 62 63 62 58 53 47 42 38 35 33 29 25 21 17 13 9 6 4 4 5 6 7 10 11 10 9 8 4 7 6 24 28 31 29 19 15 13 12
36 40 39 54 64 64 62 62 59 55 51 46 42 39 35 31 27 23 19 16 12 10 9 9 10 12 12 14 16 18 17 15 13 6 7 24 30 31 33 23 20 16 12
34 39 40 44 65 67 65 61 60 56 52 49 45 42 39 35 31 27 22 18 15 14 13 14 16 18 19 20 21 22 25 26 20 8 11 31 31 33 35 30 25 20 16
30 40 33 40 67 67 64 65 61 58 55 50 48 46 42 37 33 30 26 24 21 18 17 18 21 24 26 27 26 21 24 38 28 8 25 34 32 34 41 36 27 24 21
20 37 34 26 53 61 47 61 63 62 58 54 51 49 45 39 33 28 30 27 26 23 24 23 24 28 31 31 30 15 26 29 26 8 22 39 39 39 42 40 31 27 24
15 27 38 32 40 47 42 47 56 62 61 58 54 51 46 39 27 20 25 25 23 28 29 28 26 23 23 20 12 23 25 26 28 27 32 38 39 41 45 44 36 28 26
12 22 31 36 38 38 38 45 39 54 56 59 59 55 49 42 28 27 27 24 18 20 17 19 18 14 26 27 20 16 33 39 38 26 35 36 39 41 44 43 40 34 28
19 20 40 36 43 38 48 40 36 34 51 47 52 54 53 46 39 33 32 20 30 27 18 18 17 16 30 32 29 26 24 23 29 29 34 41 44 43 42 38 41 40 33
11 12 15 38 43 53 60 54 44 39 35 40 38 45 43 48 40 44 40 40 36 32 27 28 26 23 26 29 30 31 31 26 27 28 31 35 38 37 37 36 39 41 38
24 32 26 23 36 41 50 64 36 37 40 42 38 42 43 40 50 40 42 38 36 39 31 33 36 41 41 44 40 31 32 31 29 32 31 36 34 35 32 33 30 38 41
38 28 38 35 25 37 23 51 68 48 54 42 38 41 47 48 45 51 51 51 42 34 32 33 36 41 44 39 30 28 25 25 30 34 40 41 29 28 32 32 33 29 37
38 28 46 45 38 32 30 21 22 67 61 60 46 47 52 54 56 52 56 54 53 43 38 39 43 39 44 40 38 35 27 34 37 36 45 43 35 34 33 28 25 31 30
40 34 34 44 55 43 32 31 16 23 24 53 59 60 62 60 66 57 61 59 57 55 48 48 49 47 50 47 48 36 34 40 44 44 40 36 37 34 23 28 36 36 38
30 30 30 34 44 58 56 45 37 33 36 33 51 62 64 63 70 59 59 69 61 68 55 52 57 56 58 50 39 41 43 38 39 37 40 34 34 30 33 28 34 40 43
23 34 30 28 37 40 53 68 67 65 28 35 43 39 41 52 48 53 54 50 50 62 65 60 69 65 61 49 53 41 27 26 35 31 33 33 23 26 28 34 40 46 40
19 20 29 36 35 39 42 49 62 68 101 62 51 51 45 46 48 51 45 38 35 52 76 76 73 71 53 50 54 54 19 12 14 22 26 31 17 26 36 39 37 37 39
25 20 19 30 35 28 37 41 40 46 63 87 88 61 46 50 55 59 67 52 41 46 50 67 60 63 69 63 62 69 58 47 25 11 18 20 18 33 28 38 41 23 33
19 30 28 25 32 28 28 51 40 45 43 35 39 56 76 78 76 84 95 89 90 68 68 44 52 48 56 77 91 91 58 36 34 42 39 31 28 35 24 37 42 28 30
29 27 25 30 25 25 31 29 48 39 37 46 47 46 46 58 65 81 82 90 96 95 78 73 50 64 88 99 85 80 63 47 41 31 32 41 40 42 35 42 35 32 29
Wind_Direction_500mb
175 150 144 148 149 146 145 145 144 140 137 135 132 128 128 131 137 137 131 125 122 114 107 102 98 95 92 91 87 80 72 68 69 71 65 59 69 90 99 101 76 65 39
188 154 148 151 152 149 150 146 145 147 143 140 136 134 133 134 134 132 128 126 120 111 106 102 94 88 82 73 68 70 69 70 64 59 58 62 32 50 72 97 95 43 60
205 163 153 155 156 153 153 151 150 151 148 145 141 139 139 136 134 132 130 127 120 112 104 96 86 80 73 68 63 67 67 70 71 69 59 44 349 16 30 41 351 34 75
223 174 160 158 160 157 156 156 157 156 153 151 147 146 145 141 137 137 136 131 124 117 109 100 89 79 75 70 66 68 74 80 88 70 59 56 306 331 3 13 263 237 225
227 195 170 162 164 163 163 163 163 163 159 157 155 154 152 150 147 147 144 136 129 120 113 107 95 81 68 59 56 61 66 78 83 73 63 247 308 308 343 350 349 317 252
210 203 176 167 165 169 169 171 170 171 166 164 164 164 164 162 160 158 155 148 142 135 122 112 105 98 59 38 38 37 42 56 85 77 26 313 273 289 321 329 339 336 306
201 219 177 172 169 174 174 176 176 179 179 177 174 174 174 175 173 172 169 175 171 162 152 126 1 337 341 347 347 0 0 356 345 67 9 301 296 288 307 304 314 322 318
192 206 190 179 174 176 179 179 180 182 186 187 187 185 184 186 186 185 184 192 203 208 228 264 289 297 313 316 318 316 312 308 285 252 276 281 292 292 304 291 290 298 311
187 205 206 194 180 178 184 185 185 188 190 193 194 194 194 195 198 199 201 206 217 238 257 277 289 296 303 306 308 308 306 301 306 259 235 278 282 289 302 290 280 284 296
186 200 208 206 189 183 185 190 193 195 199 200 201 201 200 201 206 210 214 223 233 248 264 282 294 296 298 301 303 307 310 307 302 304 269 272 272 282 303 292 275 276 285
194 195 211 214 197 189 191 193 197 201 205 208 207 206 206 208 213 221 223 231 238 251 262 275 288 294 298 301 303 311 328 331 308 319 299 279 281 287 297 294 272 265 271
208 185 206 221 202 194 194 202 202 205 208 213 214 212 209 213 223 235 239 244 248 253 262 271 282 292 294 297 299 315 329 325 357 343 281 278 278 281 290 293 271 261 263
241 208 207 216 210 200 183 220 210 213 213 214 218 220 215 217 214 243 256 256 266 263 263 270 277 293 304 305 307 294 303 314 323 306 285 285 288 289 291 291 272 262 261
299 232 204 199 199 206 182 222 235 225 220 220 217 221 221 218 212 216 257 257 275 298 258 277 280 303 317 315 304 244 245 243 251 263 270 279 285 285 289 291 273 261 260
266 278 211 198 190 202 187 195 224 239 227 229 228 226 224 223 212 216 216 236 262 286 295 300 305 280 278 285 289 281 272 271 272 266 259 265 272 282 289 297 270 260 258
242 240 177 207 200 208 206 205 191 206 227 225 230 234 236 229 223 217 226 220 208 235 251 274 281 269 263 258 265 273 272 273 282 283 273 274 275 279 287 298 284 261 259
226 240 220 180 226 240 237 218 218 194 191 207 219 228 242 240 225 225 230 237 237 231 240 239 245 252 259 263 268 263 269 277 299 308 302 296 284 274 282 293 303 268 262
232 226 211 197 206 235 227 208 218 215 207 201 200 218 234 237 239 226 230 243 245 241 241 244 249 251 255 257 271 267 283 278 305 298 292 296 287 277 278 285 288 291 263
221 220 211 203 195 216 218 195 207 228 223 218 210 209 227 245 247 234 236 239 246 246 241 248 245 252 258 265 270 265 264 267 290 285 296 293 276 283 258 274 280 272 277
222 221 219 219 204 201 208 214 213 234 244 228 229 232 225 233 247 248 248 246 241 247 236 236 241 250 259 258 262 258 267 285 296 301 300 290 270 281 291 262 270 278 281
222 226 207 216 223 223 219 230 228 232 244 245 239 237 239 241 247 249 250 250 234 244 239 244 246 249 259 250 264 256 263 280 297 304 292 285 280 272 278 271 267 281 279
214 238 238 225 222 226 234 231 228 237 240 248 252 240 235 243 253 254 252 258 252 242 252 256 250 249 263 262 258 267 260 281 288 305 288 274 284 254 269 258 273 272 277
226 250 250 241 228 216 225 240 242 235 243 253 247 243 239 237 258 260 270 275 288 273 269 270 262 257 251 266 276 245 268 261 287 293 273 270 264 246 256 268 268 263 266
223 231 238 252 249 240 225 229 235 236 233 239 254 240 241 246 247 254 264 259 281 289 278 265 268 268 260 255 273 257 256 254 255 274 257 257 262 247 245 257 254 253 251
227 241 249 259 265 248 234 238 244 232 233 237 245 247 246 251 254 254 266 259 261 278 284 292 258 258 270 250 248 253 253 257 265 256 268 265 248 246 272 243 244 252 258
230 229 235 247 246 256 249 235 226 243 241 224 223 228 230 240 248 251 252 253 254 261 275 279 260 253 257 264 253 244 251 257 255 268 258 268 264 263 262 234 235 252 252
Wind_Speed_850mb
14 36 38 42 46 49 47 41 35 34 32 31 31 32 33 35 34 30 26 24 21 20 20 19 19 18 17 16 15 15 18 18 19 21 24 22 17 12 10 11 15 5 7
21 35 43 42 47 51 48 45 40 38 35 33 33 33 33 33 32 29 26 23 22 20 18 17 18 18 16 17 16 17 18 19 21 19 20 24 28 13 8 7 4 5 5
17 34 45 44 47 53 51 48 45 41 38 35 34 33 32 31 30 27 25 22 21 20 17 15 15 15 16 17 16 16 16 18 23 30 23 21 26 22 14 4 0 1 2
18 30 44 47 46 55 55 51 46 42 39 36 35 33 31 29 27 24 21 20 19 18 16 14 12 12 13 13 12 12 14 15 22 19 20 18 25 20 17 9 0 2 1
21 24 45 50 49 55 55 52 49 44 41 37 35 33 30 26 25 22 19 17 14 13 13 10 9 8 8 9 10 9 10 13 18 21 18 3 15 21 19 12 6 2 5
20 23 48 52 53 55 56 52 48 45 43 40 37 34 30 26 23 20 16 14 12 9 8 7 5 3 4 5 6 7 8 9 11 10 6 14 19 20 23 13 9 9 8
34 28 51 56 59 58 61 56 52 47 43 39 38 34 31 27 24 20 16 12 9 7 4 2 0 2 3 6 6 6 6 6 4 13 7 25 20 23 26 16 12 10 9
39 38 40 58 61 62 63 62 58 53 47 42 38 35 33 29 25 21 17 13 9 6 4 4 5 6 7 10 11 10 9 8 4 7 6 24 28 31 29 19 15 13 12
36 40 39 54 64 64 62 62 59 55 51 46 42 39 35 31 27 23 19 16 12 10 9 9 10 12 12 14 16 18 17 15 13 6 7 24 30 31 33 23 20 16 12
34 39 40 44 65 67 65 61 60 56 52 49 45 42 39 35 31 27 22 18 15 14 13 14 16 18 19 20 21 22 25 26 20 8 11 31 31 33 35 30 25 20 16
30 40 33 40 67 67 64 65 61 58 55 50 48 46 42 37 33 30 26 24 21 18 17 18 21 24 26 27 26 21 24 38 28 8 25 34 32 34 41 36 27 24 21
20 37 34 26 53 61 47 61 63 62 58 54 51 49 45 39 33 28 30 27 26 23 24 23 24 28 31 31 30 15 26 29 26 8 22 39 39 39 42 40 31 27 24
15 27 38 32 40 47 42 47 56 62 61 58 54 51 46 39 27 20 25 25 23 28 29 28 26 23 23 20 12 23 25 26 28 27 32 38 39 41 45 44 36 28 26
12 22 31 36 38 38 38 45 39 54 56 59 59 55 49 42 28 27 27 24 18 20 17 19 18 14 26 27 20 16 33 39 38 26 35 36 39 41 44 43 40 34 28
19 20 40 36 43 38 48 40 36 34 51 47 52 54 53 46 39 33 32 20 30 27 18 18 17 16 30 32 29 26 24 23 29 29 34 41 44 43 42 38 41 40 33
11 12 15 38 43 53 60 54 44 39 35 40 38 45 43 48 40 44 40 40 36 32 27 28 26 23 26 29 30 31 31 26 27 28 31 35 38 37 37 36 39 41 38
24 32 26 23 36 41 50 64 36 37 40 42 38 42 43 40 50 40 42 38 36 39 31 33 36 41 41 44 40 31 32 31 29 32 31 36 34 35 32 33 30 38 41
38 28 38 35 25 37 23 51 68 48 54 42 38 41 47 48 45 51 51 51 42 34 32 33 36 41 44 39 30 28 25 25 30 34 40 41 29 28 32 32 33 29 37
38 28 46 45 38 32 30 21 22 67 61 60 46 47 52 54 56 52 56 54 53 43 38 39 43 39 44 40 38 35 27 34 37 36 45 43 35 34 33 28 25 31 30
40 34 34 44 55 43 32 31 16 23 24 53 59 60 62 60 66 57 61 59 57 55 48 48 49 47 50 47 48 36 34 40 44 44 40 36 37 34 23 28 36 36 38
30 30 30 34 44 58 56 45 37 33 36 33 51 62 64 63 70 59 59 69 61 68 55 52 57 56 58 50 39 41 43 38 39 37 40 34 34 30 33 28 34 40 43
23 34 30 28 37 40 53 68 67 65 28 35 43 39 41 52 48 53 54 50 50 62 65 60 69 65 61 49 53 41 27 26 35 31 33 33 23 26 28 34 40 46 40
19 20 29 36 35 39 42 49 62 68 101 62 51 51 45 46 48 51 45 38 35 52 76 76 73 71 53 50 54 54 19 12 14 22 26 31 17 26 36 39 37 37 39
25 20 19 30 35 28 37 41 40 46 63 87 88 61 46 50 55 59 67 52 41 46 50 67 60 63 69 63 62 69 58 47 25 11 18 20 18 33 28 38 41 23 33
19 30 28 25 32 28 28 51 40 45 43 35 39 56 76 78 76 84 95 89 90 68 68 44 52 48 56 77 91 91 58 36 34 42 39 31 28 35 24 37 42 28 30
29 27 25 30 25 25 31 29 48 39 37 46 47 46 46 58 65 81 82 90 96 95 78 73 50 64 88 99 85 80 63 47 41 31 32 41 40 42 35 42 35 32 29
Wind_Direction_850mb
175 150 144 148 149 146 145 145 144 140 137 135 132 128 128 131 137 137 131 125 122 114 107 102 98 95 92 91 87 80 72 68 69 71 65 59 69 90 99 101 76 65 39
188 154 148 151 152 149 150 146 145 147 143 140 136 134 133 134 134 132 128 126 120 111 106 102 94 88 82 73 68 70 69 70 64 59 58 62 32 50 72 97 95 43 60
205 163 153 155 156 153 153 151 150 151 148 145 141 139 139 136 134 132 130 127 120 112 104 96 86 80 73 68 63 67 67 70 71 69 59 44 349 16 30 41 351 34 75
223 174 160 158 160 157 156 156 157 156 153 151 147 146 145 141 137 137 136 131 124 117 109 100 89 79 75 70 66 68 74 80 88 70 59 56 306 331 3 13 263 237 225
227 195 170 162 164 163 163 163 163 163 159 157 155 154 152 150 147 147 144 136 129 120 113 107 95 81 68 59 56 61 66 78 83 73 63 247 308 308 343 350 349 317 252
210 203 176 167 165 169 169 171 170 171 166 164 164 164 164 162 160 158 155 148 142 135 122 112 105 98 59 38 38 37 42 56 85 77 26 313 273 289 321 329 339 336 306
201 219 177 172 169 174 174 176 176 179 179 177 174 174 174 175 173 172 169 175 171 162 152 126 1 337 341 347 347 0 0 356 345 67 9 301 296 288 307 304 314 322 318
192 206 190 179 174 176 179 179 180 182 186 187 187 185 184 186 186 185 184 192 203 208 228 264 289 297 313 316 318 316 312 308 285 252 276 281 292 292 304 291 290 298 311
187 205 206 194 180 178 184 185 185 188 190 193 194 194 194 195 198 199 201 206 217 238 257 277 289 296 303 306 308 308 306 301 306 259 235 278 282 289 302 290 280 284 296
186 200 208 206 189 183 185 190 193 195 199 200 201 201 200 201 206 210 214 223 233 248 264 282 294 296 298 301 303 307 310 307 302 304 269 272 272 282 303 292 275 276 285
194 195 211 214 197 189 191 193 197 201 205 208 207 206 206 208 213 221 223 231 238 251 262 275 288 294 298 301 303 311 328 331 308 319 299 279 281 287 297 294 272 265 271
208 185 206 221 202 194 194 202 202 205 208 213 214 212 209 213 223 235 239 244 248 253 262 271 282 292 294 297 299 315 329 325 357 343 281 278 278 281 290 293 271 261 263
241 208 207 216 210 200 183 220 210 213 213 214 218 220 215 217 214 243 256 256 266 263 263 270 277 293 304 305 307 294 303 314 323 306 285 285 288 289 291 291 272 262 261
299 232 204 199 199 206 182 222 235 225 220 220 217 221 221 218 212 216 257 257 275 298 258 277 280 303 317 315 304 244 245 243 251 263 270 279 285 285 289 291 273 261 260
266 278 211 198 190 202 187 195 224 239 227 229 228 226 224 223 212 216 216 236 262 286 295 300 305 280 278 285 289 281 272 271 272 266 259 265 272 282 289 297 270 260 258
242 240 177 207 200 208 206 205 191 206 227 225 230 234 236 229 223 217 226 220 208 235 251 274 281 269 263 258 265 273 272 273 282 283 273 274 275 279 287 298 284 261 259
226 240 220 180 226 240 237 218 218 194 191 207 219 228 242 240 225 225 230 237 237 231 240 239 245 252 259 263 268 263 269 277 299 308 302 296 284 274 282 293 303 268 262
232 226 211 197 206 235 227 208 218 215 207 201 200 218 234 237 239 226 230 243 245 241 241 244 249 251 255 257 271 267 283 278 305 298 292 296 287 277 278 285 288 291 263
221 220 211 203 195 216 218 195 207 228 223 218 210 209 227 245 247 234 236 239 246 246 241 248 245 252 258 265 270 265 264 267 290 285 296 293 276 283 258 274 280 272 277
222 221 219 219 204 201 208 214 213 234 244 228 229 232 225 233 247 248 248 246 241 247 236 236 241 250 259 258 262 258 267 285 296 301 300 290 270 281 291 262 270 278 281
222 226 207 216 223 223 219 230 228 232 244 245 239 237 239 241 247 249 250 250 234 244 239 244 246 249 259 250 264 256 263 280 297 304 292 285 280 272 278 271 267 281 279
214 238 238 225 222 226 234 231 228 237 240 248 252 240 235 243 253 254 252 258 252 242 252 256 250 249 263 262 258 267 260 281 288 305 288 274 284 254 269 258 273 272 277
226 250 250 241 228 216 225 240 242 235 243 253 247 243 239 237 258 260 270 275 288 273 269 270 262 257 251 266 276 245 268 261 287 293 273 270 264 246 256 268 268 263 266
223 231 238 252 249 240 225 229 235 236 233 239 254 240 241 246 247 254 264 259 281 289 278 265 268 268 260 255 273 257 256 254 255 274 257 257 262 247 245 257 254 253 251
227 241 249 259 265 248 234 238 244 232 233 237 245 247 246 251 254 254 266 259 261 278 284 292 258 258 270 250 248 253 253 257 265 256 268 265 248 246 272 243 244 252 258
230 229 235 247 246 256 249 235 226 243 241 224 223 228 230 240 248 251 252 253 254 261 275 279 260 253 257 264 253 244 251 257 255 268 258 268 264 263 262 234 235 252 252